Regional Weather Roundup
Issued by NWS

Home | Current Version | Previous Version | Graphics & Text | Print | Product List | Glossary On
Versions: 1 2 3 4 5 6 7 8 9 10 11 12 13 14 15 16 17 18 19 20 21 22 23 24 25 26 27 28 29 30 31 32 33 34 35 36 37 38 39 40 41 42 43 44 45 46 47 48 49 50
420
ASUS43 KLOT 200008
RWRIL

ILLINOIS REGIONAL WEATHER ROUNDUP
NATIONAL WEATHER SERVICE CHICAGO/ROMEOVILLE IL
600 PM CST SUN FEB 19 2017

NOTE: "FAIR" INDICATES FEW OR NO CLOUDS BELOW 12,000 FEET WITH NO
SIGNIFICANT WEATHER AND/OR OBSTRUCTIONS TO VISIBILITY.

* THESE STATIONS ARE NOT UNDER NWS QUALITY CONTROL. THEY ALSO MAY NOT
  REPORT WEATHER SUCH AS PRECIPITATION OR FOG.

ILZ001-002-007-009-015-016-024-200100-
NORTHWEST ILLINOIS

CITY           SKY/WX    TMP DP  RH WIND       PRES   REMARKS
MOLINE         MOCLDY    63  42  46 SE10      29.97S
6HR MIN TEMP:  63; 6HR MAX TEMP:  74;

STERLING*      CLOUDY    56  43  61 E6        30.01F
SAVANNA*       CLOUDY    56  38  51 E6        29.99S
$$

ILZ003-004-008-010-011-017-018-200100-
NORTH CENTRAL ILLINOIS

CITY           SKY/WX    TMP DP  RH WIND       PRES   REMARKS
ROCKFORD       CLOUDY    56  39  53 SE6       30.05S
6HR MIN TEMP:  56; 6HR MAX TEMP:  67;

FREEPORT*      PTCLDY    50  37  62 SE8       30.03F
ROCHELLE*      CLOUDY    52  41  67 SE6       30.04S
DE KALB*       PTCLDY    54  40  59 SE6       30.05S
PERU*          PTCLDY    61  37  40 SE7       30.03S
$$

ILZ005-006-012>014-019>023-200100-
NORTHEAST ILLINOIS

CITY           SKY/WX    TMP DP  RH WIND       PRES   REMARKS
CHICAGO-OHARE  PTCLDY    56  31  38 E7        30.06R
6HR MIN TEMP:  56; 6HR MAX TEMP:  69;

CHICAGO-MIDWAY MOCLDY    53  31  42 E7        30.07R
6HR MIN TEMP:  53; 6HR MAX TEMP:  67;

AURORA         PTCLDY    55  39  54 E6        30.05S
6HR MIN TEMP:  55; 6HR MAX TEMP:  68;

LANSING*       CLEAR     56  37  49 CALM      30.08R
JOLIET*        CLEAR     58  43  57 SE6       30.06S
WAUKEGAN       CLEAR     43  31  62 E5        30.06S
6HR MIN TEMP:  43; 6HR MAX TEMP:  59;

DUPAGE AIRPORT CLEAR     54  37  52 SE3       30.05R
6HR MIN TEMP:  54; 6HR MAX TEMP:  67;

KANKAKEE*      CLEAR     54  43  65 CALM      30.08R
WHEELING       CLEAR     51  30  44 E5        30.07S
6HR MIN TEMP:  51; 6HR MAX TEMP:  64;

MORRIS*        CLEAR     59  34  39 CALM      30.04S
ROMEOVILLE*    CLEAR     56  44  64 SE7       30.06S
NORTHERLY ISL    N/A     42  31  65 CALM        N/A
$$

LMZ740>746-200100-
SOUTHERN LAKE MICHIGAN

STATION/POSITION SKY/WX   TEMP    WIND        PRES    VSBY  WAVE
                          AIR SEA DIR/SP/G                  HT/PER
                          (F)     (DEG/KT/KT) (MB)    (MI)  (FT/S)
HARRISON CRIB              44     170/  6/  7   N/A
BURNHAM HARBOR             42      CALM  /  3   N/A
CALUMET HARBOR             43      90/  5/  7 1017.9R
BURNS HARBOR               39      80/  5/  8 1019.0S
MICHIGAN CITY              53      50/  5/  5   N/A
$$

ILZ025>027-034>036-040-047-049-050-058-095>099-200100-
WEST-CENTRAL ILLINOIS

CITY           SKY/WX    TMP DP  RH WIND       PRES   REMARKS
QUINCY         PTCLDY    64  48  56 SE8       29.98R
GALESBURG*     PTCLDY    62  46  55 E3        29.99S
MACOMB*        PTCLDY    64  45  51 SE8       30.01R
JACKSONVILLE*  CLEAR     62  48  60 SE8       30.01S
PITTSFIELD*    PTCLDY    64  50  59 SE9       30.01R
$$

ILZ028>032-037-038-041>044-048-051>054-059>061-200100-
CENTRAL ILLINOIS

CITY           SKY/WX    TMP DP  RH WIND       PRES   REMARKS
PONTIAC        PTCLDY    55  42  62 SE7       30.05S
BLOOMINGTON    PTCLDY    59  41  51 SE8       30.05S
DECATUR        PTCLDY    59  48  67 S9        30.05S
PEORIA         CLOUDY    63  45  51 SE7       30.01F
6HR MIN TEMP:  58; 6HR MAX TEMP:  69;

LACON*         CLOUDY    61  42  49 SE6       30.01S
LINCOLN*       PTCLDY    59  47  64 S5        30.03R
SPRINGFIELD    MOCLDY    63  49  60 S12       30.03R
6HR MIN TEMP:  59; 6HR MAX TEMP:  71;

TAYLORVILLE    CLEAR     59  49  69 SE8       30.05R
6HR MIN TEMP:  55; 6HR MAX TEMP:  66;

$$

ILZ033-039-045-046-055>057-062-063-200100-
EAST-CENTRAL ILLINOIS

CITY           SKY/WX    TMP DP  RH WIND       PRES   REMARKS
CHAMPAIGN      CLEAR     55  44  66 S9        30.07R
RANTOUL*       CLEAR     61  46  58 SE6       30.06S
MATTOON        CLEAR     55  50  83 S8        30.06F
PARIS*         CLEAR     53  47  81 S7        30.09S
$$

ILZ079-100>102-200100-
SOUTHWEST ILLINOIS

CITY           SKY/WX    TMP DP  RH WIND       PRES   REMARKS
ALTON          PTCLDY    61  52  72 SE9       30.03S
BELLEVILLE     CLEAR     61  56  85 E8        30.02S
CAHOKIA*       CLEAR     65  51  60 SE10      30.01F
SPARTA*        CLEAR     62  54  74 SE8       30.05S
$$

ILZ064>066-069>071-074>076-080>082-084>086-088>090-092>094-200100-
SOUTH-CENTRAL ILLINOIS

CITY           SKY/WX    TMP DP  RH WIND       PRES   REMARKS
CARBONDALE     CLEAR     60  53  77 SE8       30.06S
6HR MIN TEMP:  57; 6HR MAX TEMP:  67;

CAIRO*         CLEAR     57  55  92 NE3       30.07F
EFFINGHAM*     CLEAR     54  52  92 SE9       30.09S FOG
MARION         CLEAR     61  55  82 SE6       30.08S
MT. VERNON     CLEAR     54  51  90 E6        30.08S
CENTRALIA*     CLEAR     58  53  82 SE8       30.05F
SALEM*         CLEAR     59  52  78 SE8       30.07S HAZE
METROPOLIS*    CLEAR     55  53  91 CALM      30.09S
$$

ILZ067-068-072-073-078-083-087-091-200100-
SOUTHEAST ILLINOIS

CITY           SKY/WX    TMP DP  RH WIND       PRES   REMARKS
LAWRENCEVILLE  CLEAR     49  45  86 SW6       30.11F FOG
FLORA*         CLOUDY    55  52  89 SE7       30.10S FOG
FAIRFIELD*     CLOUDY    53  52  95 SE6       30.09S
HARRISBURG*    CLEAR     55  53  94 E6        30.09S
ROBINSON*      CLEAR     50  46  87 S7        30.11S FOG
CARMI*         MOCLDY    52  51  96 SE6       30.10S FOG
$$

ABBREVIATIONS USED IN REMARKS
   TC - TEMPERATURE IN CELSIUS
  WCI - WIND CHILL INDEX
   HX - HEAT INDEX
  VSB - VISIBILITY
$$





USA.gov is the U.S. government's official web portal to all federal, state and local government web resources and services.